User: anonymous   Login
Location: Unspecified
(0.0000°N, 0.0000°E)
Time: 00:26:43
(UTC+00:00)
Language:

Nova 1 - Orbit

View from above orbital plane
View from above orbital plane
View from above satellite
View from above satellite

Ground track
Ground track

The orbit data is extracted from the following two-line orbital elements,

1 12458U 81044A   24106.52374485  .00000110  00000-0  24035-3 0  9997
2 12458  89.8613  99.7300 0013653 342.4920 132.5614 13.23157800 71692
Epoch (UTC): 15 April 2024 12:34:11
Eccentricity: 0.0013653
inclination: 89.8613°
perigee height: 1162 km
apogee height: 1183 km
right ascension of ascending node: 99.7300°
argument of perigee: 342.4920°
revolutions per day: 13.23157800
mean anomaly at epoch: 132.5614°
orbit number at epoch: 7169

The dashed part of the orbit path shows where the satellite is in the earth's shadow,  

DLR